Location: Fond Mahaut
(18.0707°N, 63.0465°W)
Time: 19:01:56
(UTC+00:00)

IRIDIUM 104 - Pass Details

Date: 08 December 2019
Orbit: 776 x 779 km, 86.4° (Epoch: 18 January)

Event Time Altitude Azimuth Distance (km) Brightness Sun altitude
Rises 23:04:57 0° 174° (S) 3,248 7.7 -20.5°
Reaches altitude 10° 23:07:18 10° 172° (S) 2,322 6.9 -21.0°
Maximum altitude 23:12:28 68° 89° (E) 834 4.2 -22.2°
Enters shadow 23:14:32 36° 17° (NNE) 1,210 5.0 -22.6°
